Flag for U.S.A. Weather past 2 weeks in Clarksville, Tennessee, U.S.A.

Now
63 °F

Sunny.


Feels Like: 63 °F
Forecast: 62 / 86 °F
Wind: No wind

Location: Outlaw Field

Current Time: Aug 1, 2014 at 7:10:30 AM

Latest Report: Aug 1, 2014 at 6:52 AM


Visibility: 7 mi

Pressure: 30.07 "Hg

Humidity: 87%

Dew point: 59 °F

Location of ClarksvilleLocation

Historic Weather in Clarksville — Graph

°F

Clarksville temperature yesterday

Maximum temperature yesterday: 85 °F (at 3:52 PM)
Minimum temperature yesterday: 58 °F (at 3:52 AM)
Average temperature yesterday: 72 °F

Past Weeks' High & Low Weather Summary

 TemperatureHumidityPressure
High95 °F (Jul 27, 1:52 PM)97% (Jul 23, 5:52 AM)30.12 "Hg (Jul 23, 5:52 AM)
Low54 °F (Jul 17, 5:52 AM)31% (Jul 17, 2:52 PM)29.81 "Hg (Jul 27, 5:52 PM)
Average74 °F67%30.02 "Hg
* Reported Jul 17 5:52 AM — Aug 1 5:52 AM, Clarksville, Weather by CustomWeather, © 2014

Note: Actual official high and low records may vary slightly from our data, if they occured in-between our weather recording intervals... More about our weather records

Advertising

Clarksville weather history for previous 24 hours

 ConditionsComfort  
Time TempWeatherWind HumidityBarometerVisibility
5:52 AM
Aug 1
60 °FFog.No wind93%30.06 "Hg4 mi
4:52 AM62 °FClear.No wind90%30.05 "Hg9 mi
3:52 AM62 °FClear.No wind93%30.04 "Hg10 mi
2:52 AM64 °FClear.No wind87%30.03 "Hg10 mi
1:52 AM64 °FClear.5 mph87%30.03 "Hg10 mi
12:52 AM68 °FClear.3 mph76%30.04 "Hg10 mi
11:52 PM
Jul 31
69 °FClear.No wind76%30.06 "Hg10 mi
10:52 PM71 °FClear.7 mph71%30.05 "Hg10 mi
9:52 PM71 °FClear.6 mph73%30.05 "Hg10 mi
8:52 PM74 °FClear.3 mph62%30.03 "Hg10 mi
7:52 PM78 °FSunny.7 mph50%30.04 "Hg10 mi
6:52 PM81 °FPartly sunny.5 mph42%30.03 "Hg10 mi
5:52 PM83 °FOvercast.7 mph41%30.04 "Hg10 mi
4:52 PM83 °FPartly sunny.6 mph37%30.04 "Hg10 mi
3:52 PM85 °FSunny.6 mph35%30.05 "Hg10 mi
2:52 PM84 °FPartly sunny.No wind36%30.06 "Hg10 mi
1:52 PM83 °FMostly cloudy.3 mph37%30.07 "Hg10 mi
12:52 PM83 °FPartly sunny.No wind36%30.08 "Hg10 mi
11:52 AM82 °FSunny.3 mph37%30.09 "Hg10 mi
10:52 AM80 °FSunny.6 mph44%30.09 "Hg10 mi
9:52 AM77 °FSunny.7 mph50%30.10 "Hg10 mi
8:52 AM72 °FSunny.5 mph64%30.11 "Hg10 mi
7:52 AM66 °FSunny.No wind84%30.10 "Hg9 mi
Weather by CustomWeather, © 2014

See weather overviewHow to use our weather pages